Location: Cardiff
(53.7833°N, 113.6000°W)
Time: 04:27:53
(UTC+00:00)

Oscar 19 - Pass Details

Date: 05 December 2023
Orbit: 771 x 789 km, 98.9° (Epoch: 25 February)

Event Time Altitude Azimuth Distance (km) Brightness Sun altitude
Rises 13:38:09 0° 12° (NNE) 3,273 13.8 -16.0°
Reaches altitude 10° 13:40:37 10° 3° (N) 2,344 13.0 -15.7°
Maximum altitude 13:45:16 35° 299° (WNW) 1,240 11.2 -15.0°
Drops below altitude 10° 13:49:55 10° 235° (SW) 2,341 12.8 -14.3°
Sets 13:52:23 0° 227° (SW) 3,268 13.6 -14.0°
